[ hide orbit diagram ]
For accurate long-term ephemerides, please instead use our Horizons system.This orbit viewer was implemented using two-body methods, and hence should not be used for determining accurate long-term trajectories (over several years or decades) or planetary encounter circumstances.
Orbital Elements at Epoch 2459000.5 (2020-May-31.0) TDB
Reference: JPL 116 (heliocentric ecliptic J2000)
Element | Value | Uncertainty (1-sigma) | Units |
e | .1684345770927117 | 3.4255e-08 | |
a | 2.203158413120384 | 3.3045e-09 | au |
q | 1.832070357538203 | 7.5611e-08 | au |
i | 3.471362385682925 | 3.9358e-06 | deg |
node | 264.8093118725182 | 6.4026e-05 | deg |
peri | 16.34932945800568 | 6.5133e-05 | deg |
M | 258.3900061489387 | 1.3415e-05 | deg |
tp | 2459337.632746826081 (2021-May-03.13274683) | 4.4832e-05 | TDB |
period | 1194.447359531273 3.27 | 2.6873e-06 7.357e-09 | d yr |
n | .3013946132722598 | 6.781e-10 | deg/d |
Q | 2.574246468702566 | 3.8611e-09 | au |
|
| | Orbit Determination Parameters
Additional Information
|
[ show covariance matrix ]
Physical Parameter Table
Parameter |
Symbol |
Value |
Units |
Sigma |
Reference |
Notes |
absolute magnitude |
H |
7.9 |
|
n/a |
MPO502153 |
IRAS observations used: 3 |
magnitude slope |
G |
0.11 |
|
n/a |
PDS3 (MPC 17257) |
Fit |
diameter |
diameter |
71.340 |
km |
1.254 |
urn:nasa:pds:neowise_diameters_albedos::2.0[mainbelt] (http://adsabs.harvard.edu/abs/2014ApJ...791..121M) |
|
rotation period |
rot_per |
5.76218 |
h |
n/a |
LCDB (Rev. 2020-October); Warner et al., 2009 |
Published Reference List: [Burchi, R.; Milano, L. (1974) Astron. Astrophys. Suppl. Ser. 15, 173-180.] [Lustig, G.; Dvorak, R. (1975) Acta Phys. Austriaca 43, 89-97.] [Van Houten-Groeneveld, I.; van Houten, C.J.; Zappala, V. (1979) Astron. Astrophys. Suppl. Ser. 35, 223-232.] [Di Martino, M.; Zappala, V.; De Sanctis, G.; Cacciatori, S. (1987) Icarus 69, 338-353.] [Weidenschilling, S.J.; Chapman, C.R.; Davis, D.R.; Greenberg, R.; et al. (1987) Icarus 70, 191-245.] [Drummond, J.D.; Weidenschilling, S.J.; Chapman, C.R.; Davis, D.R. (1988) Icarus 76, 19-77.] [Michalowski, T. (1988) Acta Astronomica 38, 455-468.] [Magnusson, P. (1990) Icarus 85, 229-240.] [Drummond, J.D.; Weidenschilling, S.J.; Chapman, C.R.; Davis, D.R. (1991) Icarus 89, 44-64.] [De Angelis, G. (1992) in Physical properties of small solar system bodies. A. Brahic, J.-C. Gerard, J. Surdej, eds. Universite de Liege, Institut d'Astrophysique, Liege, pp. 195-201.] [Michalowski, T. (1993) Icarus 106, 563-572.] [De Angelis, G. (1995) Planet. Space Sci. 43, 649-682.] [Dotto, E.; De Angelis, G.; Di Martino, M.; Barucci, M.A.; et al. (1995) Icarus 117, 313-327.] [Szabo, Gy.; Sarneczky, K.; Kiss, L.L. (1999) in Proc. IAU Coll. 173, Evolution and Source Regions of Asteroids and Comets, 185-188.] [Foerster, I.; Potthoff, H. (2001) Minor Planet Bull. 28, 25-26.] [Kaasalainen, M.; Torppa, J.; Piironen, J. (2002) Icarus 159, 369-395.] [Behrend, R. (2007) Observatoire de Geneve web site, http://obswww.unige.ch/~behrend/page_cou.html] [Behrend, R. (2009) Observatoire de Geneve web site, http://obswww.unige.ch/~behrend/page_cou.html] [Hamanowa, H.; Hamanowa, H. (2011) http://www2.ocn.ne.jp/~hamaten/astlcdata.htm] [Behrend, R. (2012) Observatoire de Geneve web site, http://obswww.unige.ch/~behrend/page_cou.html] [Dykhuis, M.J.; Molnar, L.A.; Gates, C.J.; Gonzales, J.A.; et al. (2016) Icarus 267, 174-203.] [Behrend, R. (2017) Observatoire de Geneve web site, http://obswww.unige.ch/~behrend/page_cou.html] [Hanus, J.; Viikinkoski, M.; Marchis, F.; Durech, J.; et al (2017) Astron. Astrophys. 601, A114.] [Behrend, R. (2020) Observatoire de Geneve web site, http://obswww.unige.ch/~behrend/page_cou.html] |
geometric albedo |
albedo |
0.234 |
|
0.038 |
urn:nasa:pds:neowise_diameters_albedos::2.0[mainbelt] (http://adsabs.harvard.edu/abs/2014ApJ...791..121M) |
|
B-V |
BV |
0.863 |
|
0.014 |
EAR-A-5-DDR-UBV-MEAN-VALUES-V1.2 |
#obs=8; phase (min.=2.51, mean=11.50, max.=26.13) deg. |
U-B |
UB |
0.490 |
|
0.014 |
EAR-A-5-DDR-UBV-MEAN-VALUES-V1.2 |
#obs=3; phase (min.=3.93, mean=13.67, max.=26.13) deg. |
Tholen spectral type |
spec_T |
S |
|
n/a |
EAR-A-5-DDR-TAXONOMY-V4.0 |
used 7 color indices; used ground-based radiometric albedo |
SMASSII spectral type |
spec_B |
Sk |
|
n/a |
EAR-A-5-DDR-TAXONOMY-V4.0 |
based on a high-resolution spectrum by Xu et al. (1995) or Bus and Binzel (2002) |
|
43 Ariadne (A857 GA) Discovered 1857-Apr-15 by Pogson, N. R. at Oxford |
Reference: DISCOVERY.DB | Last Updated: 2003-08-29 |
|
[ show close-approach data ]
|